Cambridge, MN

2:35 AM CDT on July 25, 2017 (GMT -0500)
Cambridge Municipal

Weather History for KCBG - May, 2014

Change the Weather History Date:

Monday, May 26, 2014

  Actual Average Record
Temperature  
Mean Temperature 76 °F -  
Max Temperature 87 °F 70 °F 118 °F (1998)
Min Temperature 66 °F 49 °F 30 °F (1992)
Cooling Degree Days 12    
Growing Degree Days 26 (Base 50)    
Moisture  
Dew Point 61 °F    
Average Humidity 66    
Maximum Humidity 78    
Minimum Humidity 48    
Precipitation  
Precipitation 0.28 in - - ()
Sea Level Pressure  
Sea Level Pressure 29.88 in    
Wind  
Wind Speed 4 mph (SSW)    
Max Wind Speed 14 mph    
Max Gust Speed 20 mph    
Visibility 9 miles    
Events Rain , Thunderstorm    
Averages and records for this station are not official NWS values.
T = Trace of Precipitation, MM = Missing Value Source: NWS Daily Summary

Daily Weather History Graph

Daily Weather History Graph

Search for Another Location

Airport or City:

Trip Planner

Search our weather history database for the weather conditions in past years. The results will help you decide how hot, cold, wet, or windy it might be!

Date:

Astronomy

May. 26, 2014 Rise Set
Actual Time 5:31 AM CDT 8:49 PM CDT
Civil Twilight 4:55 AM CDT 9:25 PM CDT
Nautical Twilight 4:08 AM CDT 10:12 PM CDT
Astronomical Twilight 3:09 AM CDT 11:12 PM CDT
Moon 4:21 AM CDT (5/26) 6:46 PM CDT (5/26)
Length of Visible Light 16h 30m
Length of Day
15h 17m
Waning Crescent, 5% of the Moon is Illuminated
May 26
Waning Crescent
May 28
New
Jun 5
First Quarter
Jun 12
Full
Jun 19
Last Quarter

Hourly Weather History & Observations

Time (CDT) Temp. Heat Index Dew Point Humidity Pressure Visibility Wind Dir Wind Speed Gust Speed Precip Events Conditions
12:16 AM 71.6 °F - 60.8 °F 69% 29.88 in 10.0 mi SSE 4.6 mph - N/A   Clear
12:35 AM 71.6 °F - 60.8 °F 69% 29.88 in 10.0 mi SSE 5.8 mph - N/A   Clear
12:55 AM 71.6 °F - 59.0 °F 64% 29.89 in 10.0 mi South 5.8 mph - N/A   Clear
1:16 AM 71.6 °F - 59.0 °F 64% 29.89 in 10.0 mi South 4.6 mph - N/A   Clear
1:35 AM 71.6 °F - 59.0 °F 64% 29.88 in 10.0 mi SSE 3.5 mph - N/A   Clear
1:56 AM 69.8 °F - 59.0 °F 68% 29.88 in 10.0 mi Calm Calm - N/A   Clear
2:15 AM 69.8 °F - 57.2 °F 64% 29.88 in 10.0 mi SSE 3.5 mph - N/A   Clear
2:35 AM 69.8 °F - 57.2 °F 64% 29.88 in 10.0 mi Calm Calm - N/A   Clear
2:56 AM 69.8 °F - 57.2 °F 64% 29.88 in 10.0 mi Calm Calm - N/A   Clear
3:15 AM 66.2 °F - 57.2 °F 73% 29.88 in 10.0 mi SSE 3.5 mph - N/A   Clear
3:36 AM 68.0 °F - 57.2 °F 68% 29.88 in 10.0 mi South 3.5 mph - N/A   Clear
3:55 AM 68.0 °F - 57.2 °F 68% 29.88 in 10.0 mi SSE 3.5 mph - N/A   Clear
4:15 AM 68.0 °F - 57.2 °F 68% 29.87 in 10.0 mi SSE 3.5 mph - N/A   Clear
4:36 AM 68.0 °F - 57.2 °F 68% 29.88 in 10.0 mi South 3.5 mph - N/A   Clear
4:55 AM 68.0 °F - 57.2 °F 68% 29.88 in 10.0 mi SSE 4.6 mph - N/A   Clear
5:16 AM 66.2 °F - 57.2 °F 73% 29.88 in 10.0 mi South 3.5 mph - N/A   Clear
5:36 AM 66.2 °F - 57.2 °F 73% 29.88 in 10.0 mi South 3.5 mph - N/A   Clear
5:55 AM 66.2 °F - 57.2 °F 73% 29.88 in 7.0 mi South 4.6 mph - N/A   Clear
6:16 AM 66.2 °F - 57.2 °F 73% 29.88 in 7.0 mi South 3.5 mph - N/A   Clear
6:36 AM 68.0 °F - 59.0 °F 73% 29.89 in 7.0 mi South 6.9 mph - N/A   Clear
6:55 AM 69.8 °F - 59.0 °F 68% 29.88 in 7.0 mi South 5.8 mph - N/A   Clear
7:16 AM 69.8 °F - 60.8 °F 73% 29.89 in 10.0 mi SSW 3.5 mph - N/A   Clear
7:35 AM 69.8 °F - 60.8 °F 73% 29.89 in 10.0 mi South 4.6 mph - N/A   Clear
7:55 AM 71.6 °F - 60.8 °F 69% 29.89 in 10.0 mi SW 4.6 mph - N/A   Scattered Clouds
8:15 AM 71.6 °F - 60.8 °F 69% 29.89 in 10.0 mi SW 4.6 mph - N/A   Scattered Clouds
8:35 AM 71.6 °F - 60.8 °F 69% 29.89 in 10.0 mi South 4.6 mph - N/A   Clear
8:56 AM 73.4 °F - 60.8 °F 65% 29.90 in 10.0 mi Calm Calm - N/A   Clear
9:15 AM 73.4 °F - 62.6 °F 69% 29.89 in 10.0 mi WSW 3.5 mph - N/A   Clear
9:36 AM 75.2 °F - 62.6 °F 65% 29.90 in 10.0 mi West 3.5 mph - N/A   Clear
10:15 AM 78.8 °F - 62.6 °F 57% 29.89 in 10.0 mi Calm Calm - N/A   Clear
10:36 AM 80.6 °F 82.3 °F 64.4 °F 58% 29.89 in 10.0 mi South 3.5 mph - N/A   Clear
10:55 AM 82.4 °F 83.9 °F 64.4 °F 54% 29.89 in 10.0 mi South 5.8 mph - N/A   Clear
11:15 AM 82.4 °F 83.9 °F 64.4 °F 54% 29.89 in 10.0 mi SSE 5.8 mph - N/A   Clear
11:36 AM 82.4 °F 83.9 °F 64.4 °F 54% 29.89 in 10.0 mi Calm Calm - N/A   Clear
11:55 AM 84.2 °F 85.6 °F 64.4 °F 51% 29.88 in 10.0 mi WSW 5.8 mph - N/A   Clear
12:16 PM 84.2 °F 85.6 °F 64.4 °F 51% 29.88 in 10.0 mi South 4.6 mph - N/A   Clear
12:35 PM 86.0 °F 87.3 °F 64.4 °F 48% 29.88 in 10.0 mi Calm Calm - N/A   Clear
12:55 PM 86.0 °F 87.3 °F 64.4 °F 48% 29.87 in 10.0 mi Calm Calm - N/A   Scattered Clouds
1:16 PM 87.8 °F 90.4 °F 66.2 °F 49% 29.86 in 10.0 mi SSW 5.8 mph - N/A   Scattered Clouds
1:35 PM 86.0 °F 87.3 °F 64.4 °F 48% 29.86 in 10.0 mi SW 3.5 mph - N/A   Scattered Clouds
1:55 PM 87.8 °F 90.4 °F 66.2 °F 49% 29.85 in 10.0 mi SW 6.9 mph - N/A   Scattered Clouds
2:35 PM 82.4 °F 84.6 °F 66.2 °F 58% 29.84 in 10.0 mi SW 8.1 mph - N/A Rain Light Rain
2:56 PM 84.2 °F 86.6 °F 66.2 °F 55% 29.84 in 10.0 mi South 9.2 mph - N/A Thunderstorm Scattered Clouds
3:15 PM 84.2 °F 85.6 °F 64.4 °F 51% 29.85 in 10.0 mi South 6.9 mph - N/A Rain , Thunderstorm Light Thunderstorms and Rain
3:35 PM 78.8 °F - 62.6 °F 57% 29.86 in 10.0 mi NW 13.8 mph 19.6 mph N/A Thunderstorm Thunderstorm
3:56 PM 75.2 °F - 62.6 °F 65% 29.86 in 10.0 mi NNW 11.5 mph 18.4 mph N/A Thunderstorm Mostly Cloudy
4:15 PM 75.2 °F - 62.6 °F 65% 29.88 in 5.0 mi ESE 5.8 mph - N/A Rain , Thunderstorm Rain
4:36 PM 69.8 °F - 60.8 °F 73% 29.88 in 2.5 mi ESE 6.9 mph - 0.07 in Rain Light Rain
4:55 PM 69.8 °F - 60.8 °F 73% 29.87 in 10.0 mi SE 3.5 mph - 0.13 in Rain Light Rain
5:15 PM 71.6 °F - 62.6 °F 73% 29.87 in 10.0 mi Calm Calm - 0.04 in   Clear
5:36 PM 73.4 °F - 64.4 °F 73% 29.86 in 10.0 mi SSW 4.6 mph - 0.07 in   Clear
5:55 PM 73.4 °F - 62.6 °F 69% 29.86 in 10.0 mi Calm Calm - 0.09 in   Clear
6:15 PM 73.4 °F - 62.6 °F 69% 29.86 in 10.0 mi NNW 4.6 mph - 0.02 in Rain Light Rain
6:36 PM 71.6 °F - 62.6 °F 73% 29.86 in 10.0 mi Calm Calm - 0.02 in   Clear
6:55 PM 71.6 °F - 62.6 °F 73% 29.86 in 10.0 mi WNW 5.8 mph - 0.03 in   Clear
7:15 PM 71.6 °F - 62.6 °F 73% 29.87 in 10.0 mi West 5.8 mph - 0.01 in   Clear
7:36 PM 71.6 °F - 62.6 °F 73% 29.87 in 10.0 mi West 4.6 mph - 0.01 in   Clear
7:55 PM 71.6 °F - 60.8 °F 69% 29.87 in 10.0 mi WNW 5.8 mph - 0.02 in Rain Light Rain
8:15 PM 69.8 °F - 60.8 °F 73% 29.87 in 10.0 mi NW 4.6 mph - N/A Rain Light Rain
8:36 PM 69.8 °F - 60.8 °F 73% 29.87 in 10.0 mi Calm Calm - 0.01 in Rain Light Rain
8:55 PM 69.8 °F - 60.8 °F 73% 29.88 in 10.0 mi Calm Calm - 0.01 in   Scattered Clouds
9:16 PM 69.8 °F - 60.8 °F 73% 29.88 in 10.0 mi Calm Calm - N/A   Scattered Clouds
9:35 PM 69.8 °F - 60.8 °F 73% 29.88 in 7.0 mi Calm Calm - N/A   Scattered Clouds
9:55 PM 69.8 °F - 60.8 °F 73% 29.88 in 7.0 mi Calm Calm - N/A   Clear
10:16 PM 69.8 °F - 60.8 °F 73% 29.88 in 7.0 mi Calm Calm - N/A   Clear
10:35 PM 69.8 °F - 60.8 °F 73% 29.88 in 7.0 mi Calm Calm - N/A   Light Drizzle
10:56 PM 68.0 °F - 60.8 °F 78% 29.88 in 5.0 mi Calm Calm - N/A   Haze
11:15 PM 68.0 °F - 60.8 °F 78% 29.88 in 4.0 mi Calm Calm - N/A   Haze
11:35 PM 68.0 °F - 60.8 °F 78% 29.89 in 4.0 mi Calm Calm - N/A   Haze
11:56 PM 68.0 °F - 60.8 °F 78% 29.89 in 5.0 mi North 3.5 mph - N/A Rain Rain